User: anonymous   Login
Location: Napier
(39.4830°S, 176.9170°E)
Time: 20:08:35
(UTC+13:00)
Language:

Terra - Orbit

View from above orbital plane
View from above orbital plane
View from above satellite
View from above satellite

Ground track
Ground track

The orbit data is extracted from the following two-line orbital elements,

1 25994U 99068A   19291.08014121 -.00000036  00000-0  19555-5 0  9990
2 25994  98.1976   3.7580 0001566  95.2120 264.9252 14.57115411 54875
Epoch (UTC): 18 October 2019 01:55:24
Eccentricity: 0.0001566
inclination: 98.1976°
perigee height: 701 km
apogee height: 703 km
right ascension of ascending node: 3.7580°
argument of perigee: 95.2120°
revolutions per day: 14.57115411
mean anomaly at epoch: 264.9252°
orbit number at epoch: 5487

The dashed part of the orbit path shows where the satellite is in the earth's shadow,  

DLR